Location: ?astrovice
(49.6513°N, 14.9287°E)
Time: 23:16:39
(UTC+00:00)

COSMOS 2428 - Pass Details

Date: 09 April 2020
Orbit: 846 x 856 km, 70.9° (Epoch: 23 May)

Event Time Altitude Azimuth Distance (km) Brightness Sun altitude
Rises 22:55:35 0° 333° (NNW) 3,426 6.7 -32.3°
Reaches altitude 10° 22:58:12 10° 340° (NNW) 2,486 5.9 -32.3°
Maximum altitude 23:03:35 42° 51° (NE) 1,198 3.6 -32.3°
Enters shadow 23:03:38 42° 52° (NE) 1,198 3.6 -32.3°
